Weather History for KEUL - October, 2012

Change the Weather History Date:

Thursday, October 4, 2012

  Actual Average (KBOI) Record (KBOI)
Temperature  
Mean Temperature 47 °F 58 °F  
Max Temperature 62 °F 71 °F 88 °F (1947)
Min Temperature 32 °F 45 °F 26 °F (1981)
Degree Days  
Heating Degree Days 18 8  
Month to date heating degree days 30  
Since 1 July heating degree days 151  
Cooling Degree Days 0 1  
Month to date cooling degree days 4  
Year to date cooling degree days 938  
Moisture  
Dew Point 20 °F    
Average Humidity 38    
Maximum Humidity 60    
Minimum Humidity 20    
Precipitation  
Precipitation 0.00 in 0.02 in 1.13 in (1923)
Month to date precipitation 0.08  
Year to date precipitation 8.16  
Snow  
Snow 0.00 in 0.00 in 0.00 in (2006)
Month to date snowfall 0.0  
Since 1 July snowfall 0.0  
Snow Depth -    
Sea Level Pressure  
Sea Level Pressure 30.19 in    
Wind  
Wind Speed 4 mph (SW)    
Max Wind Speed 12 mph    
Max Gust Speed -    
Visibility 10 miles    
Events      
T = Trace of Precipitation, MM = Missing Value Source: NWS Daily Summary

Daily Weather History Graph

Daily Weather History Graph

Search for Another Location

Airport or City:

Trip Planner

Search our weather history database for the weather conditions in past years. The results will help you decide how hot, cold, wet, or windy it might be!

Date:

Astronomy

Oct. 04, 2012 Rise Set
Actual Time 7:48 AM MDT 7:21 PM MDT
Civil Twilight 7:19 AM MDT 7:49 PM MDT
Nautical Twilight 6:46 AM MDT 8:22 PM MDT
Astronomical Twilight 6:12 AM MDT 8:56 PM MDT
Moon 9:51 PM MDT (10/4) 12:17 PM MDT (10/4)
Length of Visible Light 12h 30m
Length of Day
11h 32m
Waning Gibbous, 81% of the Moon is Illuminated
Oct 4
Waning Gibbous
Oct 8
Last Quarter
Oct 15
New
Oct 21
First Quarter
Oct 29
Full

Hourly Weather History & Observations

Time (MDT) Temp. Windchill Dew Point Humidity Pressure Visibility Wind Dir Wind Speed Gust Speed Precip Events Conditions
12:15 AM 42.8 °F - 19.4 °F 39% 30.20 in 10.0 mi Calm Calm - N/A   Clear
12:35 AM 44.6 °F 41.4 °F 19.4 °F 37% 30.20 in 10.0 mi WNW 5.8 mph - N/A   Clear
1:15 AM 35.6 °F 31.7 °F 21.2 °F 56% 30.21 in 10.0 mi ENE 4.6 mph - N/A   Clear
1:35 AM 33.8 °F - 19.4 °F 56% 30.21 in 10.0 mi Calm Calm - N/A   Clear
1:55 AM 33.8 °F 30.8 °F 19.4 °F 56% 30.21 in 10.0 mi NNE 3.5 mph - N/A   Clear
2:15 AM 33.8 °F - 21.2 °F 60% 30.21 in 10.0 mi Calm Calm - N/A   Clear
2:35 AM 32.0 °F 25.6 °F 19.4 °F 60% 30.21 in 10.0 mi SSE 6.9 mph - N/A   Clear
2:55 AM 33.8 °F 28.6 °F 19.4 °F 56% 30.22 in 10.0 mi SSE 5.8 mph - N/A   Clear
3:15 AM 35.6 °F 29.2 °F 21.2 °F 56% 30.21 in 10.0 mi SSW 8.1 mph - N/A   Clear
3:35 AM 35.6 °F 31.7 °F 19.4 °F 52% 30.21 in 10.0 mi ESE 4.6 mph - N/A   Clear
3:55 AM 35.6 °F 29.9 °F 19.4 °F 52% 30.21 in 10.0 mi ESE 6.9 mph - N/A   Clear
4:15 AM 33.8 °F 28.6 °F 17.6 °F 52% 30.22 in 10.0 mi SE 5.8 mph - N/A   Clear
4:35 AM 33.8 °F 27.7 °F 17.6 °F 52% 30.21 in 10.0 mi SSE 6.9 mph - N/A   Clear
4:55 AM 33.8 °F 28.6 °F 17.6 °F 52% 30.22 in 10.0 mi SE 5.8 mph - N/A   Clear
5:35 AM 35.6 °F 31.7 °F 17.6 °F 48% 30.22 in 10.0 mi ESE 4.6 mph - N/A   Clear
6:15 AM 32.0 °F 27.5 °F 17.6 °F 55% 30.21 in 10.0 mi ESE 4.6 mph - N/A   Clear
6:55 AM 33.8 °F - 15.8 °F 48% 30.21 in 10.0 mi Calm Calm - N/A   Clear
7:15 AM 33.8 °F 29.6 °F 15.8 °F 48% 30.21 in 10.0 mi SW 4.6 mph - N/A   Clear
7:55 AM 33.8 °F - 15.8 °F 48% 30.22 in 10.0 mi Calm Calm - N/A   Clear
8:15 AM 33.8 °F 29.6 °F 15.8 °F 48% 30.22 in 10.0 mi ESE 4.6 mph - N/A   Clear
8:35 AM 33.8 °F 29.6 °F 15.8 °F 48% 30.22 in 10.0 mi SE 4.6 mph - N/A   Clear
8:55 AM 35.6 °F 29.9 °F 17.6 °F 48% 30.22 in 10.0 mi ESE 6.9 mph - N/A   Clear
9:15 AM 39.2 °F 37.0 °F 19.4 °F 45% 30.22 in 10.0 mi SE 3.5 mph - N/A   Clear
9:35 AM 42.8 °F 38.6 °F 19.4 °F 39% 30.23 in 10.0 mi SSE 6.9 mph - N/A   Clear
9:55 AM 44.6 °F 42.2 °F 19.4 °F 37% 30.23 in 10.0 mi SSE 4.6 mph - N/A   Clear
10:15 AM 44.6 °F 42.2 °F 19.4 °F 37% 30.23 in 10.0 mi South 4.6 mph - N/A   Clear
10:35 AM 46.4 °F 44.3 °F 19.4 °F 34% 30.24 in 10.0 mi SSW 4.6 mph - N/A   Clear
10:55 AM 46.4 °F - 21.2 °F 37% 30.24 in 10.0 mi Calm Calm - N/A   Clear
11:15 AM 48.2 °F - 21.2 °F 34% 30.24 in 10.0 mi SSE 4.6 mph - N/A   Clear
11:35 AM 51.8 °F - 21.2 °F 30% 30.23 in 10.0 mi South 6.9 mph - N/A   Clear
11:55 AM 53.6 °F - 23.0 °F 30% 30.23 in 10.0 mi South 6.9 mph - N/A   Clear
12:35 PM 53.6 °F - 23.0 °F 30% 30.22 in 10.0 mi South 4.6 mph - N/A   Clear
12:55 PM 55.4 °F - 23.0 °F 29% 30.22 in 10.0 mi Calm Calm - N/A   Clear
1:15 PM 55.4 °F - 23.0 °F 29% 30.21 in 10.0 mi SSE 4.6 mph - N/A   Clear
1:35 PM 55.4 °F - 23.0 °F 29% 30.21 in 10.0 mi SSW 5.8 mph - N/A   Clear
1:55 PM 57.2 °F - 24.8 °F 29% 30.20 in 10.0 mi West 4.6 mph - N/A   Clear
2:15 PM 57.2 °F - 24.8 °F 29% 30.19 in 10.0 mi Calm Calm - N/A   Clear
2:35 PM 57.2 °F - 24.8 °F 29% 30.18 in 10.0 mi South 4.6 mph - N/A   Clear
2:55 PM 57.2 °F - 24.8 °F 29% 30.17 in 10.0 mi SSE 3.5 mph - N/A   Clear
3:15 PM 57.2 °F - 24.8 °F 29% 30.16 in 10.0 mi West 3.5 mph - N/A   Clear
3:35 PM 59.0 °F - 23.0 °F 25% 30.15 in 10.0 mi Calm Calm - N/A   Clear
3:55 PM 60.8 °F - 24.8 °F 25% 30.14 in 10.0 mi NNW 4.6 mph - N/A   Clear
4:15 PM 60.8 °F - 24.8 °F 25% 30.14 in 10.0 mi WNW 5.8 mph - N/A   Clear
4:55 PM 62.6 °F - 23.0 °F 22% 30.13 in 10.0 mi NNW 6.9 mph - N/A   Clear
5:15 PM 62.6 °F - 21.2 °F 20% 30.13 in 10.0 mi NNW 4.6 mph - N/A   Clear
5:35 PM 62.6 °F - 21.2 °F 20% 30.13 in 10.0 mi NW 5.8 mph - N/A   Clear
5:55 PM 60.8 °F - 21.2 °F 22% 30.13 in 10.0 mi WNW 8.1 mph - N/A   Clear
6:15 PM 60.8 °F - 19.4 °F 20% 30.13 in 10.0 mi NNW 10.4 mph - N/A   Clear
6:35 PM 60.8 °F - 19.4 °F 20% 30.13 in 10.0 mi North 11.5 mph - N/A   Clear
6:55 PM 59.0 °F - 19.4 °F 22% 30.13 in 10.0 mi NNW 6.9 mph - N/A   Clear
7:15 PM 57.2 °F - 19.4 °F 23% 30.13 in 10.0 mi NNW 8.1 mph - N/A   Clear
7:35 PM 53.6 °F - 19.4 °F 26% 30.13 in 6.0 mi NW 6.9 mph - N/A   Clear
7:55 PM 53.6 °F - 19.4 °F 26% 30.13 in 10.0 mi West 5.8 mph - N/A   Clear
8:15 PM 53.6 °F - 21.2 °F 28% 30.14 in 10.0 mi West 3.5 mph - N/A   Clear
8:35 PM 51.8 °F - 21.2 °F 30% 30.14 in 10.0 mi West 5.8 mph - N/A   Clear
8:55 PM 51.8 °F - 21.2 °F 30% 30.14 in 10.0 mi West 5.8 mph - N/A   Clear
9:15 PM 48.2 °F - 21.2 °F 34% 30.14 in 10.0 mi WNW 3.5 mph - N/A   Clear
9:35 PM 48.2 °F - 21.2 °F 34% 30.15 in 10.0 mi West 5.8 mph - N/A   Clear
10:15 PM 44.6 °F 42.2 °F 21.2 °F 39% 30.15 in 10.0 mi North 4.6 mph - N/A   Clear
10:35 PM 44.6 °F 41.4 °F 21.2 °F 39% 30.16 in 10.0 mi NNW 5.8 mph - N/A   Clear
10:55 PM 46.4 °F 42.9 °F 21.2 °F 37% 30.16 in 10.0 mi West 6.9 mph - N/A   Clear
11:15 PM 44.6 °F 40.2 °F 21.2 °F 39% 30.17 in 10.0 mi West 8.1 mph - N/A   Clear
11:35 PM 42.8 °F 37.0 °F 21.2 °F 42% 30.17 in 10.0 mi WNW 10.4 mph - N/A   Clear
11:55 PM 42.8 °F 37.0 °F 21.2 °F 42% 30.17 in 10.0 mi WNW 10.4 mph - N/A   Clear